Simultaneous Nadir Overpasses (SNOs) Predictions

Prediction of SNOs between GOES-16 and TERRA Satellite Orbit:

Table of predicted SNOs for the next 14.0 days since TLE Epoch: 11/9/2019
Index Date Time (GOES-16) GOES-16 Lat,Lon TERRA Lat,Lon Distance(km) Time Diff (sec)
1 11/09/2019 15:20:15 0.01, -75.20 -0.63, -72.33 326.60 80
2 11/10/2019 03:41:39 -0.01, -75.20 -0.49, -77.52 264.23 80
3 11/12/2019 03:26:47 -0.01, -75.20 0.11, -74.56 73.17 80
4 11/14/2019 03:14:36 -0.01, -75.21 0.78, -71.61 410.68 80
5 11/14/2019 15:35:51 0.01, -75.22 0.35, -76.76 174.63 80
6 11/16/2019 15:26:20 0.00, -75.23 -0.32, -73.80 163.00 80
7 11/17/2019 03:47:44 -0.00, -75.23 -0.79, -78.99 427.51 80
8 11/19/2019 03:35:32 0.01, -75.25 -0.18, -76.03 89.55 80
9 11/21/2019 03:20:41 0.01, -75.27 0.50, -73.08 249.17 80
10 11/21/2019 15:41:55 -0.01, -75.28 0.64, -78.23 335.91 80




NCC Satellite Simultaneous Nadir Overpasses (SNOs) Prediction Service
